STARLINK-2459

Last updated on Sat May 08 2021 00:02:04 GMT+0000 (Coordinated Universal Time)

1 48119U 21027AD 21127.58334491 -.00038025 00000-0 -26706-3 0 9999 2 48119 53.0474 191.7688 0002446 22.1417 270.0868 15.73249434 1779

Satellite not in orbit